EWG6AT EGCC-EDDL

Flight info

Callsign EWG6AT
Flight time 1h 4m
Altitude 33000
Route DESIG L603 LAMSO/N0442F350 DCT EVELI DCT PAM P62 PISAP PISAP1A
Aircraft A319/M-SDE3FGHIRWY/LB1

Departure

Time 2026-05-05 10:39
Airport Manchester Airport (EGCC)

Arrival

Time 2026-05-05 11:44
Airport Düsseldorf Airport (EDDL)
Time Latitude Longitude Altitude Speed Heading
2026-05-05 10:15 53.36001 -2.27123 248 ft 0 kts 89°
2026-05-05 10:24 53.36001 -2.27124 247 ft 0 kts 89°
2026-05-05 10:29 53.36001 -2.27150 247 ft 4 kts 89°
2026-05-05 10:29 53.36000 -2.27194 247 ft 4 kts 101°
2026-05-05 10:30 53.36011 -2.27231 247 ft 4 kts 147°
2026-05-05 10:30 53.36027 -2.27241 247 ft 1 kts 180°
2026-05-05 10:30 53.36030 -2.27241 247 ft 3 kts 180°
2026-05-05 10:34 53.36008 -2.27241 247 ft 5 kts 181°
2026-05-05 10:34 53.35962 -2.27240 247 ft 8 kts 178°
2026-05-05 10:34 53.35900 -2.27228 248 ft 10 kts 172°
2026-05-05 10:34 53.35837 -2.27219 248 ft 7 kts 194°
2026-05-05 10:35 53.35801 -2.27297 248 ft 10 kts 230°
2026-05-05 10:35 53.35751 -2.27398 248 ft 13 kts 231°
2026-05-05 10:35 53.35689 -2.27527 248 ft 16 kts 231°
2026-05-05 10:35 53.35611 -2.27671 248 ft 18 kts 224°
2026-05-05 10:36 53.35513 -2.27830 248 ft 21 kts 224°
2026-05-05 10:36 53.35394 -2.28022 242 ft 26 kts 223°
2026-05-05 10:36 53.35291 -2.28188 237 ft 22 kts 224°
2026-05-05 10:36 53.35180 -2.28407 232 ft 27 kts 231°
2026-05-05 10:37 53.35073 -2.28630 233 ft 17 kts 231°
2026-05-05 10:37 53.35006 -2.28748 231 ft 12 kts 212°
2026-05-05 10:37 53.34934 -2.28696 232 ft 13 kts 141°
2026-05-05 10:37 53.34864 -2.28604 233 ft 7 kts 141°
2026-05-05 10:38 53.34865 -2.28550 234 ft 5 kts 56°
2026-05-05 10:38 53.34869 -2.28542 234 ft 0 kts 52°
2026-05-05 10:38 53.34873 -2.28531 236 ft 5 kts 52°
2026-05-05 10:39 53.35031 -2.28205 237 ft 71 kts 51°
2026-05-05 10:39 53.35469 -2.27298 262 ft 128 kts 51°
2026-05-05 10:39 53.36110 -2.25973 529 ft 150 kts 51°
2026-05-05 10:39 53.36758 -2.24600 1186 ft 150 kts 50°
2026-05-05 10:40 53.37408 -2.23220 1759 ft 157 kts 49°
2026-05-05 10:40 53.38136 -2.21696 2120 ft 179 kts 49°
2026-05-05 10:40 53.38971 -2.19951 2503 ft 204 kts 47°
2026-05-05 10:40 53.39910 -2.17976 3017 ft 229 kts 49°
2026-05-05 10:41 53.40949 -2.15784 3652 ft 251 kts 49°
2026-05-05 10:41 53.42048 -2.13452 4635 ft 258 kts 49°
2026-05-05 10:41 53.43168 -2.11067 5549 ft 265 kts 50°
2026-05-05 10:41 53.44313 -2.08627 6040 ft 267 kts 50°
2026-05-05 10:42 53.46653 -2.03625 7783 ft 279 kts 49°
2026-05-05 10:42 53.47849 -2.01068 8680 ft 285 kts 50°
2026-05-05 10:42 53.49085 -1.98433 9606 ft 289 kts 50°
2026-05-05 10:43 53.50350 -1.95761 10368 ft 300 kts 50°
2026-05-05 10:43 53.51855 -1.93152 10676 ft 321 kts 32°
2026-05-05 10:43 53.53985 -1.91895 11061 ft 333 kts
2026-05-05 10:43 53.56252 -1.92576 11734 ft 335 kts 333°
2026-05-05 10:44 53.58063 -1.94996 12501 ft 336 kts 308°
2026-05-05 10:44 53.59520 -1.98108 13270 ft 341 kts 313°
2026-05-05 10:44 53.61518 -2.00262 13968 ft 349 kts 340°
2026-05-05 10:44 53.63945 -2.00669 14626 ft 359 kts
2026-05-05 10:45 53.66296 -1.99190 15268 ft 369 kts 32°
2026-05-05 10:45 53.68090 -1.96076 15891 ft 377 kts 57°
2026-05-05 10:45 53.69201 -1.92038 16549 ft 383 kts 72°
2026-05-05 10:45 53.69655 -1.87595 17186 ft 387 kts 90°
2026-05-05 10:46 53.69169 -1.83141 17807 ft 389 kts 115°
2026-05-05 10:46 53.67729 -1.79292 18438 ft 390 kts 130°
2026-05-05 10:46 53.66046 -1.75772 19038 ft 392 kts 133°
2026-05-05 10:46 53.64266 -1.72275 19655 ft 394 kts 134°
2026-05-05 10:47 53.62449 -1.68786 20283 ft 397 kts 134°
2026-05-05 10:47 53.60624 -1.65282 20895 ft 400 kts 134°
2026-05-05 10:47 53.58795 -1.61729 21503 ft 403 kts 133°
2026-05-05 10:47 53.56969 -1.58134 22085 ft 406 kts 133°
2026-05-05 10:48 53.55141 -1.54494 22648 ft 409 kts 133°
2026-05-05 10:48 53.53305 -1.50823 23215 ft 412 kts 133°
2026-05-05 10:48 53.51459 -1.47126 23740 ft 414 kts 133°
2026-05-05 10:48 53.49598 -1.43412 24196 ft 417 kts 133°
2026-05-05 10:49 53.47721 -1.39685 24656 ft 419 kts 133°
2026-05-05 10:49 53.45831 -1.35952 25111 ft 421 kts 133°
2026-05-05 10:49 53.43933 -1.32183 25564 ft 424 kts 130°
2026-05-05 10:49 53.42272 -1.28068 26007 ft 429 kts 121°
2026-05-05 10:50 53.41017 -1.23517 26459 ft 433 kts 111°
2026-05-05 10:50 53.40121 -1.18691 26909 ft 435 kts 108°
2026-05-05 10:50 53.39248 -1.13820 27363 ft 437 kts 108°
2026-05-05 10:50 53.38361 -1.08938 27801 ft 439 kts 108°
2026-05-05 10:51 53.37461 -1.04045 28239 ft 441 kts 108°
2026-05-05 10:51 53.36548 -0.99124 28646 ft 444 kts 108°
2026-05-05 10:51 53.35627 -0.94177 29057 ft 446 kts 108°
2026-05-05 10:51 53.34702 -0.89204 29470 ft 448 kts 108°
2026-05-05 10:52 53.34091 -0.85907 29747 ft 449 kts 108°
2026-05-05 10:52 53.33164 -0.80908 30137 ft 451 kts 108°
2026-05-05 10:52 53.32231 -0.75890 30477 ft 452 kts 107°
2026-05-05 10:52 53.31293 -0.70859 30810 ft 454 kts 108°
2026-05-05 10:53 53.30348 -0.65811 31116 ft 456 kts 108°
2026-05-05 10:53 53.29397 -0.60748 31468 ft 456 kts 108°
2026-05-05 10:53 53.28446 -0.55708 31925 ft 455 kts 108°
2026-05-05 10:53 53.27493 -0.50677 32380 ft 453 kts 108°
2026-05-05 10:54 53.26544 -0.45664 32823 ft 452 kts 108°
2026-05-05 10:54 53.25598 -0.40665 32979 ft 449 kts 108°
2026-05-05 10:54 53.24663 -0.35748 33003 ft 439 kts 108°
2026-05-05 10:55 53.22838 -0.26175 33000 ft 430 kts 108°
2026-05-05 10:55 53.21017 -0.16672 33002 ft 430 kts 108°
2026-05-05 10:56 53.19185 -0.07187 33002 ft 429 kts 108°
2026-05-05 10:56 53.17342 0.02285 32997 ft 430 kts 108°
2026-05-05 10:57 53.15498 0.11783 32995 ft 430 kts 108°
2026-05-05 10:57 53.13663 0.21198 32987 ft 430 kts 108°
2026-05-05 10:58 53.11802 0.30657 32981 ft 430 kts 108°
2026-05-05 10:58 53.09934 0.40108 32981 ft 430 kts 109°
2026-05-05 10:59 53.08052 0.49551 32983 ft 430 kts 109°
2026-05-05 10:59 53.06166 0.58993 32975 ft 430 kts 109°
2026-05-05 11:00 53.04274 0.68442 32972 ft 431 kts 109°
2026-05-05 11:00 53.02367 0.77897 32979 ft 432 kts 109°
2026-05-05 11:01 53.00455 0.87350 32978 ft 432 kts 109°
2026-05-05 11:01 52.98530 0.96806 32973 ft 433 kts 110°
2026-05-05 11:02 52.97119 1.06548 32972 ft 436 kts 102°
2026-05-05 11:02 52.95988 1.16439 32979 ft 437 kts 102°
2026-05-05 11:03 52.94836 1.26356 32976 ft 438 kts 102°
2026-05-05 11:03 52.93671 1.36278 32976 ft 439 kts 102°
2026-05-05 11:04 52.92504 1.46214 32980 ft 439 kts 103°
2026-05-05 11:04 52.91325 1.56090 32976 ft 440 kts 103°
2026-05-05 11:05 52.90123 1.66040 32974 ft 441 kts 103°
2026-05-05 11:05 52.88923 1.76014 32975 ft 442 kts 103°
2026-05-05 11:06 52.87716 1.86004 32977 ft 442 kts 103°
2026-05-05 11:06 52.86498 1.95981 32980 ft 442 kts 103°
2026-05-05 11:07 52.85268 2.05969 32977 ft 443 kts 104°
2026-05-05 11:07 52.84022 2.15968 32975 ft 444 kts 104°
2026-05-05 11:08 52.82783 2.25911 32973 ft 445 kts 104°
2026-05-05 11:08 52.81518 2.35925 32976 ft 445 kts 104°
2026-05-05 11:09 52.80234 2.45936 32974 ft 445 kts 104°
2026-05-05 11:09 52.78954 2.55943 32966 ft 446 kts 104°
2026-05-05 11:10 52.77668 2.65982 32970 ft 447 kts 104°
2026-05-05 11:10 52.76367 2.76018 32972 ft 447 kts 105°
2026-05-05 11:11 52.75046 2.86053 32971 ft 447 kts 105°
2026-05-05 11:11 52.73720 2.96087 32974 ft 447 kts 105°
2026-05-05 11:12 52.71810 3.05785 32956 ft 444 kts 114°
2026-05-05 11:12 52.69599 3.15220 32963 ft 444 kts 114°
2026-05-05 11:13 52.67363 3.24706 32970 ft 444 kts 114°
2026-05-05 11:13 52.65119 3.34175 32973 ft 444 kts 115°
2026-05-05 11:14 52.63160 3.43829 32974 ft 446 kts 109°
2026-05-05 11:14 52.61475 3.53665 32962 ft 446 kts 109°
2026-05-05 11:15 52.59781 3.63505 32963 ft 447 kts 109°
2026-05-05 11:15 52.58077 3.73331 32961 ft 447 kts 109°
2026-05-05 11:16 52.56349 3.83154 32951 ft 447 kts 109°
2026-05-05 11:16 52.54625 3.92981 32962 ft 447 kts 109°
2026-05-05 11:17 52.52897 4.02804 32949 ft 448 kts 109°
2026-05-05 11:17 52.51143 4.12616 32946 ft 448 kts 110°
2026-05-05 11:18 52.49387 4.22433 32943 ft 448 kts 110°
2026-05-05 11:18 52.47630 4.32237 32944 ft 448 kts 110°
2026-05-05 11:19 52.45861 4.42058 32941 ft 449 kts 110°
2026-05-05 11:19 52.44087 4.51858 32947 ft 449 kts 110°
2026-05-05 11:20 52.42302 4.61653 32931 ft 449 kts 110°
2026-05-05 11:20 52.40509 4.71393 32925 ft 449 kts 110°
2026-05-05 11:21 52.38706 4.81174 32928 ft 449 kts 110°
2026-05-05 11:21 52.36900 4.90947 32931 ft 448 kts 110°
2026-05-05 11:22 52.35075 5.00707 32919 ft 449 kts 111°
2026-05-05 11:22 52.33136 5.10390 32924 ft 446 kts 117°
2026-05-05 11:23 52.30518 5.19559 32930 ft 445 kts 119°
2026-05-05 11:23 52.27883 5.28732 32931 ft 445 kts 119°
2026-05-05 11:24 52.25258 5.37821 32947 ft 450 kts 119°
2026-05-05 11:24 52.23929 5.42390 32737 ft 453 kts 119°
2026-05-05 11:24 52.22576 5.47053 32176 ft 451 kts 120°
2026-05-05 11:24 52.21237 5.51674 31671 ft 450 kts 120°
2026-05-05 11:25 52.19898 5.56286 31141 ft 450 kts 119°
2026-05-05 11:25 52.18562 5.60868 30640 ft 450 kts 119°
2026-05-05 11:25 52.17215 5.65481 30093 ft 451 kts 119°
2026-05-05 11:25 52.15871 5.70080 29390 ft 448 kts 119°
2026-05-05 11:26 52.14528 5.74656 28685 ft 446 kts 119°
2026-05-05 11:26 52.13197 5.79181 27987 ft 442 kts 118°
2026-05-05 11:26 52.11874 5.83675 27319 ft 438 kts 118°
2026-05-05 11:26 52.10565 5.88122 26667 ft 435 kts 118°
2026-05-05 11:27 52.09264 5.92543 26024 ft 431 kts 118°
2026-05-05 11:27 52.07973 5.96930 25407 ft 428 kts 118°
2026-05-05 11:27 52.06692 6.01272 24798 ft 424 kts 117°
2026-05-05 11:27 52.05436 6.05515 24201 ft 420 kts 118°
2026-05-05 11:28 52.04154 6.09829 23602 ft 417 kts 117°
2026-05-05 11:28 52.02911 6.14000 22927 ft 414 kts 117°
2026-05-05 11:28 52.01660 6.18197 22247 ft 411 kts 118°
2026-05-05 11:28 52.00414 6.22371 21586 ft 408 kts 118°
2026-05-05 11:29 51.99179 6.26502 20976 ft 405 kts 118°
2026-05-05 11:29 51.97959 6.30576 20547 ft 398 kts 118°
2026-05-05 11:29 51.96761 6.34562 20171 ft 389 kts 118°
2026-05-05 11:29 51.95582 6.38475 19800 ft 383 kts 117°
2026-05-05 11:30 51.94414 6.42332 19435 ft 379 kts 118°
2026-05-05 11:30 51.93253 6.46156 19067 ft 377 kts 118°
2026-05-05 11:30 51.92099 6.49950 18709 ft 374 kts 118°
2026-05-05 11:30 51.90847 6.53619 18250 ft 370 kts 126°
2026-05-05 11:31 51.89203 6.56772 17725 ft 365 kts 138°
2026-05-05 11:31 51.87222 6.59294 17172 ft 361 kts 148°
2026-05-05 11:31 51.84995 6.61116 16608 ft 359 kts 159°
2026-05-05 11:31 51.82727 6.62742 16052 ft 356 kts 147°
2026-05-05 11:32 51.80946 6.65471 15497 ft 353 kts 126°
2026-05-05 11:32 51.79790 6.68929 14953 ft 349 kts 110°
2026-05-05 11:32 51.79208 6.72710 14420 ft 345 kts 95°
2026-05-05 11:32 51.79072 6.76513 13903 ft 342 kts 91°
2026-05-05 11:33 51.78962 6.80341 13345 ft 340 kts 92°
2026-05-05 11:33 51.78847 6.84143 12754 ft 338 kts 93°
2026-05-05 11:33 51.78729 6.87928 12185 ft 336 kts 94°
2026-05-05 11:33 51.78613 6.91681 11624 ft 334 kts 93°
2026-05-05 11:34 51.78496 6.95429 11100 ft 332 kts 95°
2026-05-05 11:34 51.78078 6.99048 10726 ft 327 kts 109°
2026-05-05 11:34 51.77122 7.02351 10358 ft 323 kts 123°
2026-05-05 11:34 51.75724 7.05127 9994 ft 316 kts 137°
2026-05-05 11:35 51.74031 7.07324 9621 ft 309 kts 144°
2026-05-05 11:35 51.72322 7.09388 9223 ft 305 kts 144°
2026-05-05 11:35 51.70504 7.11034 8846 ft 298 kts 162°
2026-05-05 11:35 51.68488 7.11477 8583 ft 290 kts 184°
2026-05-05 11:36 51.66558 7.10716 8326 ft 284 kts 204°
2026-05-05 11:36 51.64886 7.09060 8030 ft 281 kts 213°
2026-05-05 11:36 51.63252 7.07301 7652 ft 284 kts 213°
2026-05-05 11:36 51.61598 7.05528 7190 ft 287 kts 212°
2026-05-05 11:37 51.59927 7.03738 6576 ft 289 kts 212°
2026-05-05 11:37 51.58146 7.02311 5943 ft 284 kts 197°
2026-05-05 11:37 51.56233 7.01672 5307 ft 280 kts 188°
2026-05-05 11:37 51.54320 7.01183 4678 ft 276 kts 188°
2026-05-05 11:38 51.52450 7.00699 4041 ft 275 kts 188°
2026-05-05 11:38 51.50535 7.00199 3390 ft 274 kts 189°
2026-05-05 11:38 51.48681 6.99712 3061 ft 270 kts 189°
2026-05-05 11:38 51.47449 6.99387 2989 ft 262 kts 188°
2026-05-05 11:39 51.45160 6.98785 2993 ft 241 kts 188°
2026-05-05 11:39 51.43556 6.98364 3000 ft 226 kts 188°
2026-05-05 11:39 51.42057 6.97974 3001 ft 212 kts 188°
2026-05-05 11:39 51.40617 6.97601 3000 ft 209 kts 188°
2026-05-05 11:40 51.39196 6.97194 2999 ft 203 kts 195°
2026-05-05 11:40 51.38349 6.96580 2989 ft 196 kts 213°
2026-05-05 11:40 51.37383 6.95052 2779 ft 196 kts 231°
2026-05-05 11:40 51.36561 6.93330 2511 ft 194 kts 233°
2026-05-05 11:41 51.35754 6.91618 2249 ft 192 kts 234°
2026-05-05 11:41 51.34966 6.89953 2013 ft 186 kts 234°
2026-05-05 11:41 51.34196 6.88326 1751 ft 179 kts 234°
2026-05-05 11:41 51.33488 6.86836 1504 ft 160 kts 235°
2026-05-05 11:42 51.32854 6.85499 1305 ft 145 kts 236°
2026-05-05 11:42 51.32256 6.84236 1119 ft 141 kts 237°
2026-05-05 11:42 51.31674 6.83007 902 ft 137 kts 236°
2026-05-05 11:42 51.31110 6.81815 707 ft 133 kts 236°
2026-05-05 11:43 51.30545 6.80622 537 ft 134 kts 236°
2026-05-05 11:43 51.29980 6.79435 367 ft 134 kts 236°
2026-05-05 11:43 51.29416 6.78256 192 ft 133 kts 238°
2026-05-05 11:43 51.28900 6.77170 130 ft 104 kts 233°
2026-05-05 11:44 51.28564 6.76464 127 ft 55 kts 233°
2026-05-05 11:44 51.28408 6.76141 127 ft 30 kts 231°
2026-05-05 11:44 51.28301 6.76042 127 ft 16 kts 187°
2026-05-05 11:44 51.28204 6.76074 127 ft 8 kts 151°
2026-05-05 11:45 51.28159 6.76080 129 ft 7 kts 219°
2026-05-05 11:45 51.28117 6.76021 129 ft 9 kts 192°
2026-05-05 11:45 51.28081 6.76096 129 ft 10 kts 82°
2026-05-05 11:45 51.28079 6.76184 128 ft 9 kts 120°
2026-05-05 11:46 51.28038 6.76221 128 ft 2 kts 162°
2026-05-05 11:46 51.28036 6.76222 128 ft 0 kts 163°
2026-05-05 11:47 51.28037 6.76222 128 ft 0 kts 163°